Notices

What's New in latest Release from April 7th, 2021:

- Updated Glossary, including Speed of Maximum Gust, and Total Hourly Precipitation

- Updated national and regional climate services offices contacts and prices information

- Addition of station inventory lists for 1981-2010, 1971-2000, and 1961-1990 Normals.

If you haven't already, please take our survey and provide feedback about our website: https://eccc.sondage-survey.ca/f/LanguageSelection.aspx?s=442ca660-fcf1-47c0-95a9-59707d6fd709

Hourly Data Report for April 21, 2017

KUGAARUK CLIMATE
NUNAVUT

68°32'15.060" N
89°47'47.020" W
15.80 m
2303094
71407
NBB

Download Data

Hourly Data (April 2017)
Hourly Data Report for April 21, 2017
TIME
LST
Temp Definition
°C
Dew Point Definition
°C
Rel Hum Definition
%
Precip. Amount Definition
mm

Wind Dir Definition
10's deg

Wind Spd Definition
km/h
Visibility Definition
km
Stn Press Definition
kPa
Hmdx Definition


Wind Chill Definition


Weather Definition


00:00 -27.8 -30.9 75 0.0 6 5   102.43   -33 LegendNANA
01:00 -27.7 -30.8 75 0.0 7 3   102.45   -31 LegendNANA
02:00 -27.2 -30.1 76 0.0 9 5   102.46   -32 LegendNANA
03:00 -28.0 -31.0 75 0.0 5 3   102.48   -31 LegendNANA
04:00 -24.2 -26.6 81 0.0 11 5   102.50   -29 LegendNANA
05:00 -27.6 -30.8 75 0.0 25 7   102.52   -34 LegendNANA
06:00 -26.3 -29.4 75 0.0 27 9   102.52   -34 LegendNANA
07:00 -24.1 -27.2 75 0.0 25 13   102.53   -33 LegendNANA
08:00 -23.1 -27.1 70 0.0 25 14   102.52   -33 LegendNANA
09:00 -22.4 -27.4 64 0.0 27 11   102.53   -31 LegendNANA
10:00 -22.0 -27.3 62 0.0 25 10   102.53   -30 LegendNANA
11:00 -21.3 -26.8 61 0.0 25 11   102.53   -29 LegendNANA
12:00 -20.7 -25.6 65 0.0 24 16   102.54   -30 LegendNANA
13:00 -20.5 -25.2 66 0.0 23 14   102.54   -29 LegendNANA
14:00 -20.0 -25.0 64 0.0 24 11   102.56   -28 LegendNANA
15:00 -19.9 -24.9 64 0.0 24 14   102.57   -29 LegendNANA
16:00 -19.8 -25.2 62 0.0 24 10   102.56   -27 LegendNANA
17:00 -20.3 -24.8 67 0.0 24 12   102.57   -28 LegendNANA
18:00 -21.4 -25.6 69 0.0 27 10   102.57   -29 LegendNANA
19:00 -24.0 -26.9 77 0.0 24 11   102.58   -32 LegendNANA
20:00 -22.8 -25.6 78 0.0 25 11   102.57   -31 LegendNANA
21:00 -23.2 -26.2 76 0.2 24 17   102.55   -34 LegendNANA
22:00 -23.1 -26.0 77 0.0 25 13   102.54   -32 LegendNANA
23:00 -25.4 -28.3 76 0.0 26 12   102.54   -35 LegendNANA

Notes on Data Quality.

Legend

  • E = Estimated
  • M = Missing
  • NA = Not Available*
  • [empty] = Indicates an unobserved value
Date modified: